Wind_Speed
45 48 47 45 46 44 44 43 42 39 36 33 30 27 24 22 22 21 19 17 14 12 10 8 6 4 3 2 1 0 0 2
40 45 47 46 47 46 48 47 45 42 40 38 35 33 28 25 24 22 20 18 17 14 11 8 6 5 3 3 1 1 1 3
40 42 48 50 49 48 50 50 48 46 42 40 38 34 30 25 25 24 22 20 18 14 11 9 7 5 4 3 3 3 3 4
45 46 49 51 52 53 53 52 49 46 43 43 38 33 29 30 29 26 24 22 19 15 12 9 6 6 5 4 4 5 4 5
39 44 49 54 56 52 52 53 52 48 47 46 40 35 35 34 31 28 26 22 18 16 12 10 8 6 5 4 4 3 4 4
38 42 46 56 55 57 55 54 54 52 50 45 39 36 34 31 30 29 26 23 20 16 13 11 9 8 6 4 3 2 3 4
34 37 37 43 48 53 55 56 56 56 53 48 42 38 38 39 37 33 30 25 21 18 16 13 11 9 7 5 4 4 4 4
27 35 39 44 50 54 55 57 58 58 54 50 43 38 38 40 36 33 30 26 23 20 17 14 12 9 9 7 6 4 3 3
21 31 35 40 43 49 54 56 60 60 57 44 41 37 38 39 34 33 29 26 23 20 18 15 13 11 10 8 6 4 4 3
3 17 28 33 38 43 48 52 56 57 46 45 39 34 40 41 36 34 32 29 25 22 19 17 14 12 12 8 5 5 5 4
6 9 18 24 31 39 44 47 55 51 48 43 32 24 37 42 40 37 33 29 28 24 21 18 15 14 12 9 7 6 6 5
5 2 8 15 22 31 38 43 46 49 48 40 35 39 45 46 40 37 35 33 28 25 21 17 17 15 13 9 9 8 7 6
7 5 9 12 17 25 34 39 43 51 49 38 37 41 48 46 40 37 35 34 30 24 20 19 17 15 13 11 10 8 9 8
8 4 7 10 15 25 26 38 45 46 47 41 41 40 48 46 42 40 37 33 28 25 22 19 17 16 14 12 11 10 11 9
15 16 16 13 17 23 28 28 41 40 44 48 35 45 48 43 42 41 39 34 30 25 22 19 18 17 15 14 13 13 13 11
23 22 22 22 24 26 33 36 44 51 45 40 41 42 42 42 42 43 41 37 31 25 22 21 18 17 16 16 16 15 13 12
13 17 20 23 26 28 31 36 40 44 45 44 42 42 42 44 44 44 41 39 32 28 25 21 20 21 21 19 17 16 15 13
8 9 12 14 15 26 32 35 43 45 47 44 46 49 48 49 47 43 43 39 36 31 27 24 25 24 22 20 20 18 16 15
17 17 16 15 15 18 19 30 40 43 44 46 50 52 51 52 49 46 44 40 35 35 32 28 27 26 23 22 21 19 18 16
Wind_Direction
225 222 223 220 218 213 211 207 205 204 204 203 205 205 205 205 207 206 205 205 204 209 215 209 198 188 153 124 110 229 220 229
231 225 225 222 219 214 211 208 206 205 204 203 203 204 204 206 205 205 205 203 205 208 209 211 197 174 152 150 184 211 193 215
235 230 227 224 221 215 212 210 208 207 210 209 210 205 205 208 205 202 202 203 206 207 205 207 193 173 166 185 196 202 215 225
234 228 227 222 221 218 212 209 208 209 210 210 208 207 207 205 204 204 202 203 203 202 202 200 190 184 187 201 209 208 205 200
233 230 224 223 222 217 213 210 209 209 212 211 210 211 212 210 207 201 201 201 201 202 198 201 198 193 201 212 216 204 196 198
234 231 234 226 217 216 212 209 208 209 209 211 209 215 220 222 210 205 200 203 200 200 199 204 201 202 207 211 223 209 198 188
246 238 221 217 215 215 211 208 208 210 208 208 209 214 214 213 208 203 200 200 201 197 201 203 206 206 210 213 222 221 195 169
237 222 218 217 217 215 213 208 207 210 206 205 211 213 217 214 208 206 202 200 202 202 202 204 209 205 211 214 215 219 209 168
233 229 222 218 214 214 213 208 206 209 207 202 207 214 217 215 212 209 206 208 203 201 203 205 206 205 215 217 210 217 221 198
295 230 220 214 208 208 209 206 206 209 204 205 205 208 220 214 211 209 208 203 202 204 204 204 204 208 210 211 212 215 221 211
49 192 210 218 211 208 208 208 211 210 207 204 202 211 213 216 210 208 206 205 203 200 202 201 204 208 214 202 208 213 219 218
10 183 215 228 224 215 213 210 215 210 209 201 212 214 211 212 212 209 205 206 204 201 197 203 203 209 212 205 207 211 216 212
17 236 216 206 220 224 222 215 214 212 203 207 222 218 214 208 209 215 209 208 202 200 200 198 205 208 210 207 207 207 215 200
268 272 239 228 219 219 219 218 217 213 208 213 224 224 216 213 210 209 211 208 203 201 198 197 203 208 211 205 200 206 203 188
256 235 232 245 247 227 217 221 222 211 218 225 229 226 217 216 209 208 207 207 205 202 199 198 201 205 206 203 201 202 198 185
272 251 251 261 249 239 230 224 217 215 222 229 231 223 220 213 209 206 204 204 203 202 197 204 200 206 207 204 200 198 199 190
309 298 280 264 258 247 240 232 229 228 233 232 231 219 218 217 209 204 203 200 198 197 197 195 206 203 199 198 199 195 188 185
331 311 304 300 286 265 256 246 237 231 228 226 221 219 216 209 204 203 202 200 195 193 193 196 203 199 196 199 196 191 188 184
329 321 308 307 297 290 273 251 241 233 229 227 224 218 212 206 205 204 201 200 199 194 194 193 197 196 196 200 194 190 186 184
Height
1417 1422 1427 1432 1439 1447 1453 1458 1462 1467 1471 1474 1479 1483 1485 1489 1493 1496 1498 1501 1503 1505 1509 1509 1509 1510 1509 1510 1511 1512 1513 1513
1416 1419 1423 1428 1431 1439 1444 1451 1456 1462 1465 1468 1473 1477 1482 1485 1489 1492 1496 1498 1500 1502 1504 1508 1508 1507 1508 1508 1510 1511 1511 1512
1407 1411 1415 1418 1424 1430 1437 1442 1449 1455 1461 1464 1469 1474 1479 1484 1486 1489 1492 1494 1498 1500 1501 1504 1505 1506 1506 1508 1509 1510 1510 1509
1394 1399 1402 1409 1414 1419 1425 1434 1444 1451 1458 1460 1465 1472 1477 1479 1482 1485 1489 1491 1494 1497 1499 1502 1502 1503 1504 1506 1508 1509 1507 1507
1384 1388 1393 1396 1401 1412 1420 1427 1434 1440 1448 1456 1459 1466 1470 1475 1479 1482 1485 1489 1492 1494 1496 1498 1499 1500 1502 1504 1506 1507 1506 1505
1374 1377 1378 1383 1393 1399 1409 1418 1426 1433 1438 1446 1453 1459 1464 1473 1479 1481 1482 1486 1488 1491 1493 1496 1497 1498 1499 1500 1504 1505 1506 1505
1371 1375 1383 1386 1392 1398 1401 1409 1415 1421 1427 1438 1446 1450 1457 1466 1470 1473 1476 1480 1485 1487 1491 1493 1495 1496 1497 1497 1499 1503 1504 1503
1366 1369 1375 1377 1379 1387 1398 1402 1410 1416 1420 1431 1443 1449 1455 1461 1465 1469 1473 1476 1481 1484 1487 1489 1494 1494 1495 1494 1496 1499 1501 1501
1363 1367 1371 1378 1380 1386 1392 1398 1402 1408 1414 1426 1435 1445 1453 1455 1459 1463 1467 1473 1476 1480 1484 1487 1491 1491 1495 1495 1493 1496 1499 1499
1364 1369 1373 1376 1376 1385 1392 1396 1400 1405 1419 1423 1428 1438 1446 1448 1452 1456 1458 1463 1470 1475 1479 1483 1487 1489 1492 1491 1492 1495 1497 1499
1370 1371 1376 1383 1379 1383 1391 1394 1395 1407 1413 1419 1424 1429 1435 1445 1447 1449 1454 1461 1463 1467 1474 1479 1481 1488 1491 1485 1490 1493 1496 1497
1373 1373 1375 1380 1387 1390 1394 1392 1398 1400 1409 1415 1418 1421 1428 1437 1444 1448 1450 1454 1459 1464 1467 1473 1479 1484 1486 1485 1489 1491 1495 1495
1374 1374 1374 1373 1379 1387 1396 1396 1397 1400 1404 1407 1413 1417 1424 1427 1433 1448 1449 1451 1455 1460 1462 1469 1476 1479 1482 1482 1486 1489 1493 1494
1372 1373 1373 1373 1375 1380 1385 1390 1394 1393 1402 1404 1406 1409 1419 1425 1426 1433 1448 1454 1452 1457 1460 1463 1470 1475 1479 1481 1484 1488 1492 1491
1369 1369 1372 1369 1371 1370 1374 1377 1389 1395 1396 1398 1402 1408 1416 1417 1421 1430 1440 1447 1450 1454 1459 1461 1466 1470 1475 1479 1482 1487 1490 1487
1370 1363 1363 1365 1370 1372 1376 1377 1380 1382 1387 1395 1397 1404 1411 1416 1418 1427 1432 1437 1444 1449 1452 1459 1462 1467 1472 1476 1479 1483 1487 1485
1363 1364 1363 1362 1363 1366 1369 1372 1375 1378 1381 1384 1391 1399 1405 1411 1414 1421 1426 1431 1436 1444 1450 1453 1457 1462 1466 1472 1477 1479 1480 1484
1358 1359 1363 1364 1360 1361 1363 1369 1372 1371 1374 1375 1379 1384 1393 1402 1406 1416 1420 1427 1430 1438 1446 1449 1453 1459 1463 1469 1474 1476 1477 1480
1354 1359 1359 1358 1357 1357 1356 1360 1367 1366 1366 1370 1374 1377 1384 1393 1396 1404 1412 1421 1428 1433 1436 1442 1449 1455 1458 1465 1471 1472 1474 1477